Time,TemperatureF,DewpointF,PressureIn,WindDirection,WindDirectionDegrees,WindSpeedMPH,WindSpeedGustMPH,Humidity,HourlyPrecipIn,Conditions,Clouds,dailyrainin,SoftwareType,DateUTC
2013-05-01 00:01:00,43.9,32.1,30.35,SE,142,0.0,1.0,63,0.00,,CLR,0.00,VWS V14.01,2013-05-01 04:01:00,
2013-05-01 00:06:00,43.6,33.4,30.35,SE,142,0.0,1.0,67,0.00,,,0.00,WUHU216VWC,2013-05-01 04:06:00,
2013-05-01 00:11:00,43.3,33.1,30.34,SE,142,0.0,1.0,67,0.00,,,0.00,WUHU216VWC,2013-05-01 04:11:00,
2013-05-01 00:16:00,43.1,31.8,30.35,SE,142,0.0,1.0,64,0.00,,,0.00,WUHU216VWC,2013-05-01 04:16:00,
2013-05-01 00:21:00,43.0,31.7,30.35,SE,142,0.0,0.0,64,0.00,,,0.00,WUHU216VWC,2013-05-01 04:21:00,
2013-05-01 00:26:00,43.0,32.1,30.35,SE,142,0.0,0.0,65,0.00,,,0.00,WUHU216VWC,2013-05-01 04:26:00,
2013-05-01 00:31:00,42.8,32.2,30.35,South,174,0.0,0.0,66,0.00,,,0.00,WUHU216VWC,2013-05-01 04:31:00,
2013-05-01 00:36:00,42.9,32.7,30.35,South,174,0.0,0.0,67,0.00,,,0.00,WUHU216VWC,2013-05-01 04:36:00,
2013-05-01 00:41:00,42.8,32.6,30.35,South,174,0.0,0.0,67,0.00,,,0.00,WUHU216VWC,2013-05-01 04:41:00,
2013-05-01 00:46:00,42.8,32.2,30.35,South,174,0.0,0.0,66,0.00,,,0.00,WUHU216VWC,2013-05-01 04:46:00,
2013-05-01 00:51:00,42.8,32.2,30.35,South,174,0.0,0.0,66,0.00,,CLR,0.00,VWS V14.01,2013-05-01 04:51:00,
2013-05-01 00:56:00,42.9,32.7,30.35,South,174,0.0,0.0,67,0.00,,CLR,0.00,VWS V14.01,2013-05-01 04:56:00,
2013-05-01 01:01:00,42.8,32.2,30.35,South,174,0.0,0.0,66,0.00,,CLR,0.00,VWS V14.01,2013-05-01 05:01:00,
2013-05-01 01:06:00,42.6,32.1,30.35,South,174,0.0,0.0,66,0.00,,,0.00,WUHU216VWC,2013-05-01 05:06:00,
2013-05-01 01:11:00,42.4,32.6,30.35,South,174,0.0,0.0,68,0.00,,CLR,0.00,VWS V14.01,2013-05-01 05:11:00,
2013-05-01 01:16:00,42.2,32.8,30.35,South,174,0.0,0.0,69,0.00,,CLR,0.00,VWS V14.01,2013-05-01 05:16:00,
2013-05-01 01:21:00,42.0,32.6,30.35,South,174,0.0,0.0,69,0.00,,CLR,0.00,VWS V14.01,2013-05-01 05:21:00,
2013-05-01 01:26:00,41.7,32.3,30.35,South,174,0.0,0.0,69,0.00,,CLR,0.00,VWS V14.01,2013-05-01 05:26:00,
2013-05-01 01:31:00,41.5,32.1,30.35,South,174,0.0,0.0,69,0.00,,CLR,0.00,VWS V14.01,2013-05-01 05:31:00,
2013-05-01 01:36:00,41.3,31.9,30.36,South,174,0.0,0.0,69,0.00,,,0.00,WUHU216VWC,2013-05-01 05:36:00,
2013-05-01 01:41:00,41.1,32.8,30.36,South,174,0.0,0.0,72,0.00,,CLR,0.00,VWS V14.01,2013-05-01 05:41:00,
2013-05-01 01:46:00,40.8,32.5,30.36,South,174,0.0,0.0,72,0.00,,CLR,0.00,VWS V14.01,2013-05-01 05:46:00,
2013-05-01 01:51:00,40.5,32.9,30.36,South,174,0.0,0.0,74,0.00,,CLR,0.00,VWS V14.01,2013-05-01 05:51:00,
2013-05-01 01:56:00,40.2,32.6,30.36,South,174,0.0,0.0,74,0.00,,,0.00,WUHU216VWC,2013-05-01 05:56:00,
2013-05-01 02:01:00,40.0,32.7,30.36,South,174,0.0,0.0,75,0.00,,,0.00,WUHU216VWC,2013-05-01 06:01:00,
2013-05-01 02:06:00,39.8,32.5,30.36,South,174,0.0,0.0,75,0.00,,CLR,0.00,VWS V14.01,2013-05-01 06:06:00,
2013-05-01 02:11:00,39.7,31.8,30.36,South,174,0.0,0.0,73,0.00,,CLR,0.00,VWS V14.01,2013-05-01 06:11:00,
2013-05-01 02:16:00,39.7,32.1,30.36,South,174,0.0,0.0,74,0.00,,CLR,0.00,VWS V14.01,2013-05-01 06:16:00,
2013-05-01 02:21:00,39.6,32.3,30.36,South,174,0.0,0.0,75,0.00,,CLR,0.00,VWS V14.01,2013-05-01 06:21:00,
2013-05-01 02:26:00,39.5,32.2,30.37,South,174,0.0,0.0,75,0.00,,CLR,0.00,VWS V14.01,2013-05-01 06:26:00,
2013-05-01 02:30:00,39.3,32.4,30.37,South,174,0.0,0.0,76,0.00,,CLR,0.00,VWS V14.01,2013-05-01 06:30:00,
2013-05-01 02:35:00,39.0,32.1,30.37,South,174,0.0,0.0,76,0.00,,,0.00,WUHU216VWC,2013-05-01 06:35:00,
2013-05-01 02:40:00,38.8,32.2,30.37,South,174,0.0,0.0,77,0.00,,CLR,0.00,VWS V14.01,2013-05-01 06:40:00,
2013-05-01 02:46:00,38.6,32.3,30.37,South,174,0.0,0.0,78,0.00,,CLR,0.00,VWS V14.01,2013-05-01 06:46:00,
2013-05-01 02:51:00,38.4,32.2,30.37,South,174,0.0,0.0,78,0.00,,,0.00,WUHU216VWC,2013-05-01 06:51:00,
2013-05-01 02:55:00,38.4,32.2,30.37,South,174,0.0,0.0,78,0.00,,,0.00,WUHU216VWC,2013-05-01 06:55:00,
2013-05-01 03:00:00,38.2,32.0,30.37,South,174,0.0,0.0,78,0.00,,,0.00,WUHU216VWC,2013-05-01 07:00:00,
2013-05-01 03:05:00,38.1,31.9,30.38,South,174,0.0,0.0,78,0.00,,,0.00,WUHU216VWC,2013-05-01 07:05:00,
2013-05-01 03:10:00,38.1,31.9,30.38,South,174,0.0,0.0,78,0.00,,CLR,0.00,VWS V14.01,2013-05-01 07:10:00,
2013-05-01 03:15:00,37.9,32.0,30.38,South,174,0.0,0.0,79,0.00,,CLR,0.00,VWS V14.01,2013-05-01 07:15:00,
2013-05-01 03:20:00,37.6,31.7,30.38,South,174,0.0,0.0,79,0.00,,,0.00,WUHU216VWC,2013-05-01 07:20:00,
2013-05-01 03:25:00,37.4,31.5,30.38,South,174,0.0,0.0,79,0.00,,,0.00,WUHU216VWC,2013-05-01 07:25:00,
2013-05-01 03:30:00,37.4,31.5,30.38,South,174,0.0,0.0,79,0.00,,,0.00,WUHU216VWC,2013-05-01 07:30:00,
2013-05-01 03:35:00,37.2,31.3,30.39,South,174,0.0,0.0,79,0.00,,,0.00,WUHU216VWC,2013-05-01 07:35:00,
2013-05-01 03:40:00,37.1,31.5,30.39,South,174,0.0,0.0,80,0.00,,,0.00,WUHU216VWC,2013-05-01 07:40:00,
2013-05-01 03:45:00,37.0,31.4,30.39,South,174,0.0,0.0,80,0.00,,CLR,0.00,VWS V14.01,2013-05-01 07:45:00,
2013-05-01 03:50:00,36.9,31.3,30.39,South,174,0.0,0.0,80,0.00,,CLR,0.00,VWS V14.01,2013-05-01 07:50:00,
2013-05-01 03:55:00,36.7,31.1,30.39,South,174,0.0,0.0,80,0.00,,,0.00,WUHU216VWC,2013-05-01 07:55:00,
2013-05-01 04:00:00,36.5,31.2,30.40,South,174,0.0,0.0,81,0.00,,CLR,0.00,VWS V14.01,2013-05-01 08:00:00,
2013-05-01 04:05:00,36.5,31.5,30.40,South,174,0.0,0.0,82,0.00,,,0.00,WUHU216VWC,2013-05-01 08:05:00,
2013-05-01 04:10:00,36.4,31.4,30.40,South,174,0.0,0.0,82,0.00,,CLR,0.00,VWS V14.01,2013-05-01 08:10:00,
2013-05-01 04:15:00,36.2,31.5,30.40,South,174,0.0,0.0,83,0.00,,,0.00,WUHU216VWC,2013-05-01 08:15:00,
2013-05-01 04:20:00,36.0,31.6,30.40,South,174,0.0,0.0,84,0.00,,CLR,0.00,VWS V14.01,2013-05-01 08:20:00,
2013-05-01 04:25:00,35.8,31.5,30.40,South,174,0.0,0.0,84,0.00,,CLR,0.00,VWS V14.01,2013-05-01 08:25:00,
2013-05-01 04:30:00,35.7,31.3,30.40,South,174,0.0,0.0,84,0.00,,,0.00,WUHU216VWC,2013-05-01 08:30:00,
2013-05-01 04:35:00,35.6,31.3,30.40,South,174,0.0,0.0,84,0.00,,,0.00,WUHU216VWC,2013-05-01 08:35:00,
2013-05-01 04:40:00,35.5,31.1,30.40,South,174,0.0,0.0,84,0.00,,CLR,0.00,VWS V14.01,2013-05-01 08:40:00,
2013-05-01 04:45:00,35.2,31.1,30.40,South,174,0.0,0.0,85,0.00,,CLR,0.00,VWS V14.01,2013-05-01 08:45:00,
2013-05-01 04:50:00,35.0,31.2,30.40,South,174,0.0,0.0,86,0.00,,CLR,0.00,VWS V14.01,2013-05-01 08:50:00,
2013-05-01 04:55:00,34.9,31.4,30.40,South,174,0.0,0.0,87,0.00,,,0.00,WUHU216VWC,2013-05-01 08:55:00,
2013-05-01 05:00:00,34.8,31.6,30.40,South,174,0.0,0.0,88,0.00,,CLR,0.00,VWS V14.01,2013-05-01 09:00:00,
2013-05-01 05:05:00,34.7,31.2,30.40,South,174,0.0,0.0,87,0.00,,CLR,0.00,VWS V14.01,2013-05-01 09:05:00,
2013-05-01 05:10:00,34.7,31.2,30.40,South,174,0.0,0.0,87,0.00,,,0.00,WUHU216VWC,2013-05-01 09:10:00,
2013-05-01 05:15:00,34.5,31.3,30.40,South,174,0.0,0.0,88,0.00,,CLR,0.00,VWS V14.01,2013-05-01 09:15:00,
2013-05-01 05:20:00,34.3,31.1,30.40,South,174,0.0,0.0,88,0.00,,,0.00,WUHU216VWC,2013-05-01 09:20:00,
2013-05-01 05:25:00,34.2,31.0,30.40,South,174,0.0,0.0,88,0.00,,CLR,0.00,VWS V14.01,2013-05-01 09:25:00,
2013-05-01 05:30:00,34.1,30.9,30.41,South,174,0.0,0.0,88,0.00,,CLR,0.00,VWS V14.01,2013-05-01 09:30:00,
2013-05-01 05:35:00,34.1,30.9,30.40,South,174,0.0,0.0,88,0.00,,CLR,0.00,VWS V14.01,2013-05-01 09:35:00,
2013-05-01 05:40:00,33.9,30.7,30.41,South,174,0.0,0.0,88,0.00,,CLR,0.00,VWS V14.01,2013-05-01 09:40:00,
2013-05-01 05:45:00,33.8,30.6,30.41,South,174,0.0,0.0,88,0.00,,,0.00,WUHU216VWC,2013-05-01 09:45:00,
2013-05-01 05:50:00,33.7,30.8,30.41,South,174,0.0,0.0,89,0.00,,,0.00,WUHU216VWC,2013-05-01 09:50:00,
2013-05-01 05:55:00,33.7,31.1,30.41,South,174,0.0,0.0,90,0.00,,,0.00,WUHU216VWC,2013-05-01 09:55:00,
2013-05-01 06:00:00,33.7,31.1,30.41,South,174,0.0,0.0,90,0.00,,CLR,0.00,VWS V14.01,2013-05-01 10:00:00,
2013-05-01 06:05:00,33.7,31.1,30.41,South,174,0.0,0.0,90,0.00,,,0.00,WUHU216VWC,2013-05-01 10:05:00,
2013-05-01 06:10:00,33.8,31.5,30.41,South,174,0.0,0.0,91,0.00,,CLR,0.00,VWS V14.01,2013-05-01 10:10:00,
2013-05-01 06:15:00,33.7,31.4,30.41,South,174,0.0,0.0,91,0.00,,CLR,0.00,VWS V14.01,2013-05-01 10:15:00,
2013-05-01 06:20:00,33.7,31.1,30.41,South,174,0.0,0.0,90,0.00,,CLR,0.00,VWS V14.01,2013-05-01 10:20:00,
2013-05-01 06:25:00,33.7,31.4,30.42,South,174,0.0,0.0,91,0.00,,,0.00,WUHU216VWC,2013-05-01 10:25:00,
2013-05-01 06:30:00,33.8,31.5,30.42,South,174,0.0,0.0,91,0.00,,,0.00,WUHU216VWC,2013-05-01 10:30:00,
2013-05-01 06:35:00,33.9,31.8,30.42,South,174,0.0,0.0,92,0.00,,CLR,0.00,VWS V14.01,2013-05-01 10:35:00,
2013-05-01 06:40:00,34.1,32.0,30.42,South,174,0.0,0.0,92,0.00,,,0.00,WUHU216VWC,2013-05-01 10:40:00,
2013-05-01 06:45:00,34.2,32.1,30.42,South,174,0.0,0.0,92,0.00,,,0.00,WUHU216VWC,2013-05-01 10:45:00,
2013-05-01 06:50:00,34.7,32.9,30.42,South,174,0.0,0.0,93,0.00,,CLR,0.00,VWS V14.01,2013-05-01 10:50:00,
2013-05-01 06:55:00,35.5,33.7,30.42,South,174,0.0,0.0,93,0.00,,CLR,0.00,VWS V14.01,2013-05-01 10:55:00,
2013-05-01 07:00:00,35.9,34.1,30.42,South,174,0.0,0.0,93,0.00,,CLR,0.00,VWS V14.01,2013-05-01 11:00:00,
2013-05-01 07:05:00,36.4,34.6,30.42,South,174,0.0,0.0,93,0.00,,,0.00,WUHU216VWC,2013-05-01 11:05:00,
2013-05-01 07:10:00,36.7,34.9,30.43,South,174,0.0,0.0,93,0.00,,,0.00,WUHU216VWC,2013-05-01 11:10:00,
2013-05-01 07:15:00,37.2,35.1,30.43,South,174,0.0,0.0,92,0.00,,,0.00,WUHU216VWC,2013-05-01 11:15:00,
2013-05-01 07:20:00,37.7,35.0,30.43,South,174,0.0,0.0,90,0.00,,,0.00,WUHU216VWC,2013-05-01 11:20:00,
2013-05-01 07:25:00,38.1,35.2,30.43,South,174,0.0,0.0,89,0.00,,CLR,0.00,VWS V14.01,2013-05-01 11:25:00,
2013-05-01 07:30:00,38.6,35.6,30.43,South,174,0.0,1.0,89,0.00,,,0.00,WUHU216VWC,2013-05-01 11:30:00,
2013-05-01 07:35:00,39.2,35.7,30.44,South,174,0.0,1.0,87,0.00,,,0.00,WUHU216VWC,2013-05-01 11:35:00,
2013-05-01 07:40:00,39.9,35.8,30.44,South,174,0.0,1.0,85,0.00,,,0.00,WUHU216VWC,2013-05-01 11:40:00,
2013-05-01 07:45:00,40.9,35.8,30.44,South,174,0.0,1.0,82,0.00,,,0.00,WUHU216VWC,2013-05-01 11:45:00,
2013-05-01 07:50:00,41.8,35.8,30.44,South,174,0.0,1.0,79,0.00,,CLR,0.00,VWS V14.01,2013-05-01 11:50:00,
2013-05-01 07:55:00,42.9,36.2,30.44,SW,231,1.0,1.0,77,0.00,,CLR,0.00,VWS V14.01,2013-05-01 11:55:00,
2013-05-01 08:00:00,43.8,36.4,30.44,WSW,238,0.0,3.0,75,0.00,,,0.00,WUHU216VWC,2013-05-01 12:00:00,
2013-05-01 08:05:00,44.7,36.2,30.44,West,273,0.0,3.0,72,0.00,,CLR,0.00,VWS V14.01,2013-05-01 12:05:00,
2013-05-01 08:10:00,45.4,36.6,30.44,West,273,0.0,3.0,71,0.00,,,0.00,WUHU216VWC,2013-05-01 12:10:00,
2013-05-01 08:15:00,46.4,36.4,30.44,West,273,0.0,1.0,68,0.00,,CLR,0.00,VWS V14.01,2013-05-01 12:15:00,
2013-05-01 08:20:00,47.2,36.4,30.44,West,273,2.0,2.0,66,0.00,,CLR,0.00,VWS V14.01,2013-05-01 12:20:00,
2013-05-01 08:25:00,48.0,36.0,30.44,West,273,0.0,2.0,63,0.00,,,0.00,WUHU216VWC,2013-05-01 12:25:00,
2013-05-01 08:30:00,48.7,35.9,30.44,West,273,0.0,2.0,61,0.00,,,0.00,WUHU216VWC,2013-05-01 12:30:00,
2013-05-01 08:35:00,49.4,35.7,30.44,NW,308,0.0,2.0,59,0.00,,CLR,0.00,VWS V14.01,2013-05-01 12:35:00,
2013-05-01 08:40:00,49.9,35.7,30.45,WNW,300,0.0,2.0,58,0.00,,CLR,0.00,VWS V14.01,2013-05-01 12:40:00,
2013-05-01 08:45:00,50.4,36.2,30.44,WSW,257,3.0,4.0,58,0.00,,,0.00,WUHU216VWC,2013-05-01 12:45:00,
2013-05-01 08:50:00,51.0,35.0,30.44,WSW,257,0.0,4.0,54,0.00,,,0.00,WUHU216VWC,2013-05-01 12:50:00,
2013-05-01 08:55:00,51.7,35.1,30.45,WSW,257,1.0,3.0,53,0.00,,CLR,0.00,VWS V14.01,2013-05-01 12:55:00,
2013-05-01 09:00:00,52.5,35.4,30.45,WSW,257,0.0,1.0,52,0.00,,CLR,0.00,VWS V14.01,2013-05-01 13:00:00,
2013-05-01 09:05:00,53.2,35.1,30.45,WNW,284,0.0,2.0,50,0.00,,CLR,0.00,VWS V14.01,2013-05-01 13:05:00,
2013-05-01 09:10:00,53.7,35.0,30.45,WNW,284,2.0,2.0,49,0.00,,CLR,0.00,VWS V14.01,2013-05-01 13:10:00,
2013-05-01 09:15:00,54.3,36.6,30.45,WNW,282,0.0,3.0,51,0.00,,CLR,0.00,VWS V14.01,2013-05-01 13:15:00,
2013-05-01 09:20:00,55.0,36.2,30.45,WNW,282,2.0,3.0,49,0.00,,,0.00,WUHU216VWC,2013-05-01 13:20:00,
2013-05-01 09:25:00,55.7,36.3,30.44,West,266,3.0,4.0,48,0.00,,,0.00,WUHU216VWC,2013-05-01 13:25:00,
2013-05-01 09:30:00,56.1,36.7,30.44,West,263,2.0,4.0,48,0.00,,CLR,0.00,VWS V14.01,2013-05-01 13:30:00,
2013-05-01 09:35:00,56.5,36.5,30.44,West,263,0.0,4.0,47,0.00,,,0.00,WUHU216VWC,2013-05-01 13:35:00,
2013-05-01 09:40:00,56.9,36.3,30.45,West,264,0.0,2.0,46,0.00,,CLR,0.00,VWS V14.01,2013-05-01 13:40:00,
2013-05-01 09:45:00,57.3,37.3,30.45,West,264,1.0,2.0,47,0.00,,CLR,0.00,VWS V14.01,2013-05-01 13:45:00,
2013-05-01 09:50:00,57.9,37.3,30.45,West,263,1.0,3.0,46,0.00,,CLR,0.00,VWS V14.01,2013-05-01 13:50:00,
2013-05-01 09:55:00,58.6,36.2,30.45,West,263,2.0,3.0,43,0.00,,CLR,0.00,VWS V14.01,2013-05-01 13:55:00,
2013-05-01 10:00:00,59.3,36.2,30.45,West,262,5.0,5.0,42,0.00,,CLR,0.00,VWS V14.01,2013-05-01 14:00:00,
2013-05-01 10:05:00,59.8,36.1,30.45,West,261,1.0,5.0,41,0.00,,,0.00,WUHU216VWC,2013-05-01 14:05:00,
2013-05-01 10:10:00,60.2,37.0,30.45,West,274,0.0,5.0,42,0.00,,,0.00,WUHU216VWC,2013-05-01 14:10:00,
2013-05-01 10:15:00,60.7,36.3,30.45,WSW,240,1.0,3.0,40,0.00,,CLR,0.00,VWS V14.01,2013-05-01 14:15:00,
2013-05-01 10:20:00,61.1,37.2,30.45,WSW,240,3.0,3.0,41,0.00,,CLR,0.00,VWS V14.01,2013-05-01 14:20:00,
2013-05-01 10:25:00,61.6,35.8,30.45,WSW,256,1.0,5.0,38,0.00,,CLR,0.00,VWS V14.01,2013-05-01 14:25:00,
2013-05-01 10:30:00,62.0,34.1,30.45,South,186,1.0,5.0,35,0.00,,,0.00,WUHU216VWC,2013-05-01 14:30:00,
2013-05-01 10:35:00,62.2,34.2,30.45,WSW,242,0.0,5.0,35,0.00,,,0.00,WUHU216VWC,2013-05-01 14:35:00,
2013-05-01 10:40:00,62.8,33.3,30.45,SSE,166,1.0,4.0,33,0.00,,,0.00,WUHU216VWC,2013-05-01 14:40:00,
2013-05-01 10:45:00,63.3,33.0,30.45,SE,125,0.0,3.0,32,0.00,,,0.00,WUHU216VWC,2013-05-01 14:45:00,
2013-05-01 10:50:00,63.4,32.3,30.45,ESE,105,0.0,4.0,31,0.00,,,0.00,WUHU216VWC,2013-05-01 14:50:00,
2013-05-01 10:55:00,63.5,33.1,30.45,SE,128,0.0,4.0,32,0.00,,,0.00,WUHU216VWC,2013-05-01 14:55:00,
2013-05-01 11:00:00,63.7,33.3,30.44,SSW,195,0.0,4.0,32,0.00,,,0.00,WUHU216VWC,2013-05-01 15:00:00,
2013-05-01 11:04:00,63.7,32.5,30.44,NE,37,2.0,3.0,31,0.00,,,0.00,WUHU216VWC,2013-05-01 15:04:00,
2013-05-01 11:10:00,64.4,32.3,30.44,NNE,16,0.0,3.0,30,0.00,,CLR,0.00,VWS V14.01,2013-05-01 15:10:00,
2013-05-01 11:14:00,65.0,34.5,30.44,NW,319,1.0,3.0,32,0.00,,,0.00,WUHU216VWC,2013-05-01 15:14:00,
2013-05-01 11:19:00,65.4,33.2,30.44,South,174,1.0,2.0,30,0.00,,CLR,0.00,VWS V14.01,2013-05-01 15:19:00,
2013-05-01 11:24:00,65.6,33.4,30.44,SSW,193,0.0,4.0,30,0.00,,,0.00,WUHU216VWC,2013-05-01 15:24:00,
2013-05-01 11:29:00,65.8,33.5,30.44,East,99,1.0,4.0,30,0.00,,,0.00,WUHU216VWC,2013-05-01 15:29:00,
2013-05-01 11:34:00,66.0,33.7,30.44,West,272,6.0,6.0,30,0.00,,CLR,0.00,VWS V14.01,2013-05-01 15:34:00,
2013-05-01 11:39:00,66.6,35.8,30.43,WSW,257,1.0,6.0,32,0.00,,CLR,0.00,VWS V14.01,2013-05-01 15:39:00,
2013-05-01 11:44:00,67.0,35.4,30.43,West,272,3.0,6.0,31,0.00,,CLR,0.00,VWS V14.01,2013-05-01 15:44:00,
2013-05-01 11:49:00,67.1,33.8,30.43,SSW,202,2.0,4.0,29,0.00,,CLR,0.00,VWS V14.01,2013-05-01 15:49:00,
2013-05-01 11:54:00,67.1,34.7,30.43,SW,221,3.0,6.0,30,0.00,,,0.00,WUHU216VWC,2013-05-01 15:54:00,
2013-05-01 11:59:00,67.4,34.1,30.43,WSW,256,5.0,5.0,29,0.00,,,0.00,WUHU216VWC,2013-05-01 15:59:00,
2013-05-01 12:04:00,68.0,34.6,30.43,West,261,0.0,6.0,29,0.00,,CLR,0.00,VWS V14.01,2013-05-01 16:04:00,
2013-05-01 12:09:00,67.9,33.6,30.43,SSE,161,1.0,3.0,28,0.00,,CLR,0.00,VWS V14.01,2013-05-01 16:09:00,
2013-05-01 12:14:00,68.2,33.9,30.42,SE,128,0.0,6.0,28,0.00,,,0.00,WUHU216VWC,2013-05-01 16:14:00,
2013-05-01 12:19:00,68.5,34.1,30.42,SE,134,0.0,4.0,28,0.00,,,0.00,WUHU216VWC,2013-05-01 16:19:00,
2013-05-01 12:24:00,69.0,34.6,30.42,SSE,153,1.0,4.0,28,0.00,,,0.00,WUHU216VWC,2013-05-01 16:24:00,
2013-05-01 12:29:00,69.2,35.6,30.42,West,274,0.0,4.0,29,0.00,,CLR,0.00,VWS V14.01,2013-05-01 16:29:00,
2013-05-01 12:34:00,69.6,34.2,30.42,SSW,196,0.0,4.0,27,0.00,,CLR,0.00,VWS V14.01,2013-05-01 16:34:00,
2013-05-01 12:39:00,69.8,34.3,30.42,East,90,2.0,5.0,27,0.00,,,0.00,WUHU216VWC,2013-05-01 16:39:00,
2013-05-01 12:44:00,69.8,35.3,30.42,ENE,67,0.0,5.0,28,0.00,,,0.00,WUHU216VWC,2013-05-01 16:44:00,
2013-05-01 12:49:00,70.5,34.9,30.42,SE,136,1.0,5.0,27,0.00,,,0.00,WUHU216VWC,2013-05-01 16:49:00,
2013-05-01 12:54:00,70.8,34.3,30.41,SSE,153,0.0,5.0,26,0.00,,,0.00,WUHU216VWC,2013-05-01 16:54:00,
2013-05-01 12:59:00,71.0,35.4,30.41,SE,144,1.0,3.0,27,0.00,,,0.00,WUHU216VWC,2013-05-01 16:59:00,
2013-05-01 13:04:00,71.3,35.6,30.41,SSE,155,2.0,3.0,27,0.00,,,0.00,WUHU216VWC,2013-05-01 17:04:00,
2013-05-01 13:09:00,71.2,34.6,30.41,SSE,153,1.0,2.0,26,0.00,,CLR,0.00,VWS V14.01,2013-05-01 17:09:00,
2013-05-01 13:14:00,71.3,34.7,30.41,SE,135,1.0,5.0,26,0.00,,CLR,0.00,VWS V14.01,2013-05-01 17:14:00,
2013-05-01 13:19:00,71.5,35.8,30.41,SW,216,1.0,5.0,27,0.00,,CLR,0.00,VWS V14.01,2013-05-01 17:19:00,
2013-05-01 13:24:00,71.7,36.0,30.41,SSE,166,0.0,3.0,27,0.00,,CLR,0.00,VWS V14.01,2013-05-01 17:24:00,
2013-05-01 13:29:00,71.6,33.9,30.41,East,82,0.0,5.0,25,0.00,,,0.00,WUHU216VWC,2013-05-01 17:29:00,
2013-05-01 13:34:00,71.5,34.8,30.41,SE,128,0.0,4.0,26,0.00,,,0.00,WUHU216VWC,2013-05-01 17:34:00,
2013-05-01 13:39:00,71.6,34.0,30.41,South,169,3.0,5.0,25,0.00,,CLR,0.00,VWS V14.01,2013-05-01 17:39:00,
2013-05-01 13:44:00,71.7,34.0,30.41,SE,134,3.0,5.0,25,0.00,,CLR,0.00,VWS V14.01,2013-05-01 17:44:00,
2013-05-01 13:49:00,71.4,33.8,30.41,SE,124,1.0,4.0,25,0.00,,CLR,0.00,VWS V14.01,2013-05-01 17:49:00,
2013-05-01 13:54:00,71.7,34.0,30.41,SE,138,3.0,6.0,25,0.00,,,0.00,WUHU216VWC,2013-05-01 17:54:00,
2013-05-01 13:59:00,71.7,35.0,30.41,SE,138,3.0,6.0,26,0.00,,CLR,0.00,VWS V14.01,2013-05-01 17:59:00,
2013-05-01 14:04:00,72.1,35.4,30.41,SE,126,0.0,6.0,26,0.00,,,0.00,WUHU216VWC,2013-05-01 18:04:00,
2013-05-01 14:09:00,72.4,34.6,30.41,East,86,2.0,5.0,25,0.00,,CLR,0.00,VWS V14.01,2013-05-01 18:09:00,
2013-05-01 14:14:00,72.5,33.7,30.41,SSE,153,1.0,5.0,24,0.00,,CLR,0.00,VWS V14.01,2013-05-01 18:14:00,
2013-05-01 14:19:00,72.4,32.5,30.40,SE,146,1.0,3.0,23,0.00,,CLR,0.00,VWS V14.01,2013-05-01 18:19:00,
2013-05-01 14:24:00,72.3,33.5,30.40,ENE,72,1.0,5.0,24,0.00,,CLR,0.00,VWS V14.01,2013-05-01 18:24:00,
2013-05-01 14:29:00,72.4,32.5,30.40,South,171,2.0,5.0,23,0.00,,CLR,0.00,VWS V14.01,2013-05-01 18:29:00,
2013-05-01 14:34:00,72.2,34.5,30.40,SSE,162,2.0,5.0,25,0.00,,,0.00,WUHU216VWC,2013-05-01 18:34:00,
2013-05-01 14:39:00,72.1,33.3,30.41,SSE,153,2.0,7.0,24,0.00,,CLR,0.00,VWS V14.01,2013-05-01 18:39:00,
2013-05-01 14:44:00,72.0,35.3,30.40,East,82,0.0,7.0,26,0.00,,CLR,0.00,VWS V14.01,2013-05-01 18:44:00,
2013-05-01 14:49:00,72.1,34.4,30.40,ESE,117,1.0,7.0,25,0.00,,,0.00,WUHU216VWC,2013-05-01 18:49:00,
2013-05-01 14:54:00,72.2,35.4,30.40,South,169,1.0,7.0,26,0.00,,,0.00,WUHU216VWC,2013-05-01 18:54:00,
2013-05-01 14:59:00,72.5,34.7,30.40,ESE,120,0.0,5.0,25,0.00,,,0.00,WUHU216VWC,2013-05-01 18:59:00,
2013-05-01 15:04:00,72.4,35.6,30.40,SSE,162,0.0,5.0,26,0.00,,,0.00,WUHU216VWC,2013-05-01 19:04:00,
2013-05-01 15:09:00,72.3,38.3,30.39,SE,130,5.0,5.0,29,0.00,,CLR,0.00,VWS V14.01,2013-05-01 19:09:00,
2013-05-01 15:14:00,72.5,38.5,30.39,SSE,165,1.0,5.0,29,0.00,,CLR,0.00,VWS V14.01,2013-05-01 19:14:00,
2013-05-01 15:19:00,72.1,38.1,30.39,SE,138,9.0,9.0,29,0.00,,CLR,0.00,VWS V14.01,2013-05-01 19:19:00,
2013-05-01 15:24:00,71.3,39.1,30.40,SSE,148,5.0,9.0,31,0.00,,CLR,0.00,VWS V14.01,2013-05-01 19:24:00,
2013-05-01 15:29:00,70.9,38.8,30.40,SE,134,6.0,9.0,31,0.00,,,0.00,WUHU216VWC,2013-05-01 19:29:00,
2013-05-01 15:34:00,71.2,39.0,30.40,SE,144,4.0,9.0,31,0.00,,,0.00,WUHU216VWC,2013-05-01 19:34:00,
2013-05-01 15:39:00,71.2,39.0,30.40,SSE,150,2.0,7.0,31,0.00,,,0.00,WUHU216VWC,2013-05-01 19:39:00,
2013-05-01 15:44:00,71.8,37.9,30.40,East,95,1.0,7.0,29,0.00,,,0.00,WUHU216VWC,2013-05-01 19:44:00,
2013-05-01 15:49:00,71.6,37.7,30.40,SE,126,6.0,7.0,29,0.00,,,0.00,WUHU216VWC,2013-05-01 19:49:00,
2013-05-01 15:54:00,71.2,38.2,30.40,East,92,1.0,7.0,30,0.00,,,0.00,WUHU216VWC,2013-05-01 19:54:00,
2013-05-01 15:59:00,71.1,37.3,30.40,SE,144,3.0,7.0,29,0.00,,,0.00,WUHU216VWC,2013-05-01 19:59:00,
2013-05-01 16:04:00,70.7,38.6,30.40,SSE,164,1.0,7.0,31,0.00,,CLR,0.00,VWS V14.01,2013-05-01 20:04:00,
2013-05-01 16:09:00,70.7,37.8,30.40,SSE,147,4.0,7.0,30,0.00,,CLR,0.00,VWS V14.01,2013-05-01 20:09:00,
2013-05-01 16:14:00,70.6,35.9,30.40,SSE,153,3.0,7.0,28,0.00,,CLR,0.00,VWS V14.01,2013-05-01 20:14:00,
2013-05-01 16:19:00,70.2,36.5,30.40,SE,131,4.0,7.0,29,0.00,,,0.00,WUHU216VWC,2013-05-01 20:19:00,
2013-05-01 16:24:00,70.1,37.3,30.40,SE,136,3.0,6.0,30,0.00,,CLR,0.00,VWS V14.01,2013-05-01 20:24:00,
2013-05-01 16:29:00,69.8,36.1,30.40,SSE,150,2.0,5.0,29,0.00,,CLR,0.00,VWS V14.01,2013-05-01 20:29:00,
2013-05-01 16:34:00,69.7,36.9,30.40,SE,138,0.0,5.0,30,0.00,,CLR,0.00,VWS V14.01,2013-05-01 20:34:00,
2013-05-01 16:39:00,69.7,36.9,30.40,SSE,153,1.0,5.0,30,0.00,,CLR,0.00,VWS V14.01,2013-05-01 20:39:00,
2013-05-01 16:44:00,69.5,35.9,30.40,SSW,199,0.0,5.0,29,0.00,,,0.00,WUHU216VWC,2013-05-01 20:44:00,
2013-05-01 16:49:00,69.6,36.0,30.40,SSE,150,4.0,6.0,29,0.00,,,0.00,WUHU216VWC,2013-05-01 20:49:00,
2013-05-01 16:54:00,69.4,36.7,30.40,SE,138,2.0,6.0,30,0.00,,,0.00,WUHU216VWC,2013-05-01 20:54:00,
2013-05-01 16:59:00,69.3,36.6,30.40,SE,146,2.0,6.0,30,0.00,,,0.00,WUHU216VWC,2013-05-01 20:59:00,
2013-05-01 17:04:00,69.2,35.6,30.40,SE,143,0.0,6.0,29,0.00,,,0.00,WUHU216VWC,2013-05-01 21:04:00,
2013-05-01 17:09:00,68.9,35.4,30.40,SSE,156,2.0,5.0,29,0.00,,,0.00,WUHU216VWC,2013-05-01 21:09:00,
2013-05-01 17:14:00,68.4,34.9,30.40,SSE,158,2.0,5.0,29,0.00,,CLR,0.00,VWS V14.01,2013-05-01 21:14:00,
2013-05-01 17:19:00,67.8,35.3,30.40,SSE,167,2.0,5.0,30,0.00,,,0.00,WUHU216VWC,2013-05-01 21:19:00,
2013-05-01 17:24:00,67.6,35.1,30.41,SSE,147,2.0,3.0,30,0.00,,CLR,0.00,VWS V14.01,2013-05-01 21:24:00,
2013-05-01 17:29:00,67.6,35.1,30.41,SE,126,1.0,3.0,30,0.00,,,0.00,WUHU216VWC,2013-05-01 21:29:00,
2013-05-01 17:34:00,67.5,34.2,30.41,SE,145,3.0,4.0,29,0.00,,,0.00,WUHU216VWC,2013-05-01 21:34:00,
2013-05-01 17:39:00,67.4,34.9,30.41,SE,144,1.0,4.0,30,0.00,,,0.00,WUHU216VWC,2013-05-01 21:39:00,
2013-05-01 17:44:00,67.3,34.8,30.41,SSE,162,2.0,4.0,30,0.00,,,0.00,WUHU216VWC,2013-05-01 21:44:00,
2013-05-01 17:49:00,67.0,34.6,30.41,SSE,161,3.0,4.0,30,0.00,,CLR,0.00,VWS V14.01,2013-05-01 21:49:00,
2013-05-01 17:54:00,66.9,34.5,30.41,SSE,150,1.0,4.0,30,0.00,,,0.00,WUHU216VWC,2013-05-01 21:54:00,
2013-05-01 17:59:00,66.8,34.4,30.41,SE,128,1.0,4.0,30,0.00,,CLR,0.00,VWS V14.01,2013-05-01 21:59:00,
2013-05-01 18:03:00,66.7,35.1,30.41,SE,138,2.0,4.0,31,0.00,,CLR,0.00,VWS V14.01,2013-05-01 22:03:00,
2013-05-01 18:08:00,66.6,34.2,30.41,SSE,154,2.0,4.0,30,0.00,,CLR,0.00,VWS V14.01,2013-05-01 22:08:00,
2013-05-01 18:13:00,66.4,34.9,30.41,SSE,157,2.0,4.0,31,0.00,,,0.00,WUHU216VWC,2013-05-01 22:13:00,
2013-05-01 18:18:00,66.3,34.8,30.41,SSE,153,3.0,4.0,31,0.00,,,0.00,WUHU216VWC,2013-05-01 22:18:00,
2013-05-01 18:23:00,66.0,34.5,30.42,SE,138,0.0,4.0,31,0.00,,CLR,0.00,VWS V14.01,2013-05-01 22:23:00,
2013-05-01 18:28:00,65.8,35.2,30.42,SE,136,3.0,4.0,32,0.00,,CLR,0.00,VWS V14.01,2013-05-01 22:28:00,
2013-05-01 18:33:00,65.6,35.7,30.42,SE,124,2.0,4.0,33,0.00,,,0.00,WUHU216VWC,2013-05-01 22:33:00,
2013-05-01 18:38:00,65.4,34.8,30.42,SW,217,0.0,4.0,32,0.00,,,0.00,WUHU216VWC,2013-05-01 22:38:00,
2013-05-01 18:43:00,65.2,34.6,30.42,SE,144,2.0,4.0,32,0.00,,CLR,0.00,VWS V14.01,2013-05-01 22:43:00,
2013-05-01 18:48:00,64.9,34.4,30.42,SE,142,0.0,4.0,32,0.00,,,0.00,WUHU216VWC,2013-05-01 22:48:00,
2013-05-01 18:53:00,64.7,35.0,30.42,SE,144,0.0,4.0,33,0.00,,,0.00,WUHU216VWC,2013-05-01 22:53:00,
2013-05-01 18:58:00,64.4,34.7,30.43,SE,138,1.0,4.0,33,0.00,,,0.00,WUHU216VWC,2013-05-01 22:58:00,
2013-05-01 19:03:00,64.2,34.5,30.43,SE,146,1.0,4.0,33,0.00,,,0.00,WUHU216VWC,2013-05-01 23:03:00,
2013-05-01 19:08:00,64.0,34.3,30.43,SE,139,1.0,3.0,33,0.00,,,0.00,WUHU216VWC,2013-05-01 23:08:00,
2013-05-01 19:13:00,63.8,34.9,30.42,SE,131,2.0,2.0,34,0.00,,CLR,0.00,VWS V14.01,2013-05-01 23:13:00,
2013-05-01 19:18:00,63.5,34.7,30.42,SE,142,0.0,2.0,34,0.00,,,0.00,WUHU216VWC,2013-05-01 23:18:00,
2013-05-01 19:23:00,63.2,35.1,30.42,SE,142,0.0,2.0,35,0.00,,,0.00,WUHU216VWC,2013-05-01 23:23:00,
2013-05-01 19:28:00,62.9,34.1,30.43,SSE,148,0.0,1.0,34,0.00,,CLR,0.00,VWS V14.01,2013-05-01 23:28:00,
2013-05-01 19:33:00,62.6,34.6,30.43,SSE,148,0.0,1.0,35,0.00,,CLR,0.00,VWS V14.01,2013-05-01 23:33:00,
2013-05-01 19:38:00,62.3,34.3,30.42,SE,142,1.0,2.0,35,0.00,,CLR,0.00,VWS V14.01,2013-05-01 23:38:00,
2013-05-01 19:43:00,62.0,34.1,30.42,SE,142,1.0,2.0,35,0.00,,CLR,0.00,VWS V14.01,2013-05-01 23:43:00,
2013-05-01 19:48:00,61.6,33.7,30.42,SE,142,0.0,2.0,35,0.00,,,0.00,WUHU216VWC,2013-05-01 23:48:00,
2013-05-01 19:53:00,61.2,34.1,30.42,SE,142,0.0,1.0,36,0.00,,CLR,0.00,VWS V14.01,2013-05-01 23:53:00,
2013-05-01 19:58:00,60.9,33.8,30.42,SSW,209,0.0,3.0,36,0.00,,CLR,0.00,VWS V14.01,2013-05-01 23:58:00,
2013-05-01 20:03:00,60.7,32.9,30.42,SW,221,0.0,3.0,35,0.00,,CLR,0.00,VWS V14.01,2013-05-02 00:03:00,
2013-05-01 20:08:00,60.4,35.3,30.42,SW,221,0.0,1.0,39,0.00,,CLR,0.00,VWS V14.01,2013-05-02 00:08:00,
2013-05-01 20:13:00,60.0,35.6,30.43,SW,221,0.0,1.0,40,0.00,,CLR,0.00,VWS V14.01,2013-05-02 00:13:00,
2013-05-01 20:18:00,59.4,35.1,30.43,SW,221,0.0,0.0,40,0.00,,CLR,0.00,VWS V14.01,2013-05-02 00:18:00,
2013-05-01 20:23:00,58.7,35.1,30.43,SW,221,0.0,0.0,41,0.00,,CLR,0.00,VWS V14.01,2013-05-02 00:23:00,
2013-05-01 20:28:00,58.2,34.6,30.43,SW,221,0.0,0.0,41,0.00,,,0.00,WUHU216VWC,2013-05-02 00:28:00,
2013-05-01 20:33:00,57.5,34.0,30.43,SW,221,0.0,0.0,41,0.00,,CLR,0.00,VWS V14.01,2013-05-02 00:33:00,
2013-05-01 20:38:00,56.6,35.5,30.43,SW,221,0.0,0.0,45,0.00,,CLR,0.00,VWS V14.01,2013-05-02 00:38:00,
2013-05-01 20:43:00,55.9,35.4,30.43,SW,221,0.0,0.0,46,0.00,,,0.00,WUHU216VWC,2013-05-02 00:43:00,
2013-05-01 20:48:00,55.4,36.1,30.43,SW,221,0.0,0.0,48,0.00,,,0.00,WUHU216VWC,2013-05-02 00:48:00,
2013-05-01 20:53:00,54.9,35.6,30.43,SW,221,0.0,0.0,48,0.00,,,0.00,WUHU216VWC,2013-05-02 00:53:00,
2013-05-01 20:58:00,54.3,35.6,30.43,SW,221,0.0,0.0,49,0.00,,,0.00,WUHU216VWC,2013-05-02 00:58:00,
2013-05-01 21:03:00,53.7,36.0,30.43,SW,221,0.0,0.0,51,0.00,,CLR,0.00,VWS V14.01,2013-05-02 01:03:00,
2013-05-01 21:08:00,53.3,35.2,30.44,SW,221,0.0,0.0,50,0.00,,CLR,0.00,VWS V14.01,2013-05-02 01:08:00,
2013-05-01 21:13:00,53.0,36.3,30.44,SW,221,0.0,0.0,53,0.00,,,0.00,WUHU216VWC,2013-05-02 01:13:00,
2013-05-01 21:18:00,52.5,35.4,30.44,SW,221,0.0,0.0,52,0.00,,CLR,0.00,VWS V14.01,2013-05-02 01:18:00,
2013-05-01 21:23:00,52.1,35.5,30.44,SW,221,0.0,0.0,53,0.00,,CLR,0.00,VWS V14.01,2013-05-02 01:23:00,
2013-05-01 21:28:00,51.7,35.1,30.44,SW,221,0.0,0.0,53,0.00,,,0.00,WUHU216VWC,2013-05-02 01:28:00,
2013-05-01 21:33:00,51.3,35.7,30.44,SW,221,0.0,0.0,55,0.00,,CLR,0.00,VWS V14.01,2013-05-02 01:33:00,
2013-05-01 21:38:00,51.0,35.4,30.44,SW,221,0.0,0.0,55,0.00,,,0.00,WUHU216VWC,2013-05-02 01:38:00,
2013-05-01 21:43:00,50.7,36.0,30.44,SW,221,0.0,0.0,57,0.00,,CLR,0.00,VWS V14.01,2013-05-02 01:43:00,
2013-05-01 21:48:00,50.2,36.0,30.44,SW,221,0.0,0.0,58,0.00,,CLR,0.00,VWS V14.01,2013-05-02 01:48:00,
2013-05-01 21:53:00,49.8,36.5,30.44,SW,221,0.0,0.0,60,0.00,,CLR,0.00,VWS V14.01,2013-05-02 01:53:00,
2013-05-01 21:58:00,49.6,36.3,30.44,SW,221,0.0,0.0,60,0.00,,CLR,0.00,VWS V14.01,2013-05-02 01:58:00,
2013-05-01 22:03:00,49.2,35.9,30.44,SW,221,0.0,0.0,60,0.00,,,0.00,WUHU216VWC,2013-05-02 02:03:00,
2013-05-01 22:08:00,49.0,36.2,30.44,SW,221,0.0,0.0,61,0.00,,CLR,0.00,VWS V14.01,2013-05-02 02:08:00,
2013-05-01 22:13:00,48.7,36.3,30.44,SW,221,0.0,0.0,62,0.00,,CLR,0.00,VWS V14.01,2013-05-02 02:13:00,
2013-05-01 22:18:00,48.5,36.1,30.44,SW,221,0.0,0.0,62,0.00,,,0.00,WUHU216VWC,2013-05-02 02:18:00,
2013-05-01 22:23:00,48.3,36.3,30.44,SW,221,0.0,0.0,63,0.00,,,0.00,WUHU216VWC,2013-05-02 02:23:00,
2013-05-01 22:28:00,48.0,36.0,30.44,SW,221,0.0,0.0,63,0.00,,,0.00,WUHU216VWC,2013-05-02 02:28:00,
2013-05-01 22:33:00,47.6,36.4,30.44,SW,221,0.0,0.0,65,0.00,,CLR,0.00,VWS V14.01,2013-05-02 02:33:00,
2013-05-01 22:38:00,47.3,35.8,30.44,SW,221,0.0,0.0,64,0.00,,CLR,0.00,VWS V14.01,2013-05-02 02:38:00,
2013-05-01 22:43:00,47.1,36.0,30.44,SW,221,0.0,0.0,65,0.00,,CLR,0.00,VWS V14.01,2013-05-02 02:43:00,
2013-05-01 22:48:00,46.8,36.4,30.43,SW,221,0.0,0.0,67,0.00,,,0.00,WUHU216VWC,2013-05-02 02:48:00,
2013-05-01 22:53:00,46.4,36.4,30.43,SW,221,0.0,0.0,68,0.00,,,0.00,WUHU216VWC,2013-05-02 02:53:00,
2013-05-01 22:58:00,46.2,36.6,30.43,SW,221,0.0,0.0,69,0.00,,,0.00,WUHU216VWC,2013-05-02 02:58:00,
2013-05-01 23:03:00,46.0,36.8,30.43,SW,221,0.0,0.0,70,0.00,,CLR,0.00,VWS V14.01,2013-05-02 03:03:00,
2013-05-01 23:08:00,45.8,37.0,30.43,SW,221,0.0,0.0,71,0.00,,CLR,0.00,VWS V14.01,2013-05-02 03:08:00,
2013-05-01 23:13:00,45.6,37.1,30.43,SW,221,0.0,0.0,72,0.00,,,0.00,WUHU216VWC,2013-05-02 03:13:00,
2013-05-01 23:18:00,45.4,36.9,30.43,SW,221,0.0,0.0,72,0.00,,,0.00,WUHU216VWC,2013-05-02 03:18:00,
2013-05-01 23:23:00,45.2,37.1,30.43,SW,221,0.0,0.0,73,0.00,,,0.00,WUHU216VWC,2013-05-02 03:23:00,
2013-05-01 23:28:00,45.0,36.5,30.43,SW,221,0.0,0.0,72,0.00,,,0.00,WUHU216VWC,2013-05-02 03:28:00,
2013-05-01 23:33:00,44.9,37.1,30.43,SW,221,0.0,0.0,74,0.00,,,0.00,WUHU216VWC,2013-05-02 03:33:00,
2013-05-01 23:38:00,44.7,36.9,30.42,SW,221,0.0,0.0,74,0.00,,CLR,0.00,VWS V14.01,2013-05-02 03:38:00,
2013-05-01 23:43:00,44.5,36.4,30.43,SW,221,0.0,0.0,73,0.00,,,0.00,WUHU216VWC,2013-05-02 03:43:00,
2013-05-01 23:48:00,44.3,36.2,30.43,SW,221,0.0,0.0,73,0.00,,CLR,0.00,VWS V14.01,2013-05-02 03:48:00,
2013-05-01 23:53:00,44.2,36.1,30.43,SW,221,0.0,0.0,73,0.00,,,0.00,WUHU216VWC,2013-05-02 03:53:00,
2013-05-01 23:58:00,44.1,36.7,30.43,SW,221,0.0,0.0,75,0.00,,,0.00,WUHU216VWC,2013-05-02 03:58:00,